View from above orbital plane
|
View from above satellite
|
Ground track
|
The orbit data is extracted from the following two-line orbital elements,
1 23753U 95072C 21102.51654592 -.00000032 00000-0 60320-5 0 9998
2 23753 98.9562 129.7547 0003846 165.3967 194.7324 14.26598331316174
Epoch (UTC): | 12 April 2021 12:23:49 |
Eccentricity: | 0.0003846 |
inclination: | 98.9562° |
perigee height: | 800 km |
apogee height: | 806 km |
right ascension of ascending node: | 129.7547° |
argument of perigee: | 165.3967° |
revolutions per day: | 14.26598331 |
mean anomaly at epoch: | 194.7324° |
orbit number at epoch: | 31617 |
The dashed part of the orbit path shows where the satellite is in the earth's shadow,
|
|